Aberdeen, SD

6:12 PM CST on January 19, 2017 (GMT -0600)
Aberdeen Regional

Weather History for KABR - December, 2012

Change the Weather History Date:

Wednesday, December 19, 2012

  Actual Average Record
Temperature  
Mean Temperature 11 °F 14 °F  
Max Temperature 20 °F 24 °F 57 °F (1893)
Min Temperature 2 °F 5 °F -29 °F (1916)
Degree Days  
Heating Degree Days 54 51  
Month to date heating degree days 808 908  
Since 1 July heating degree days 2703 2871  
Cooling Degree Days 0 0  
Month to date cooling degree days 0 0  
Year to date cooling degree days 764 525  
Moisture  
Dew Point 6 °F    
Average Humidity 75    
Maximum Humidity 88    
Minimum Humidity 62    
Precipitation  
Precipitation 0.00 in 0.01 in 0.54 in (1951)
Month to date precipitation 0.66 0.31  
Year to date precipitation 14.55 21.51  
Snow  
Snow 0.00 in - - ()
Month to date snowfall 11.3  
Since 1 July snowfall 11.9  
Snow Depth 2.00 in    
Sea Level Pressure  
Sea Level Pressure 30.03 in    
Wind  
Wind Speed 8 mph (West)    
Max Wind Speed 18 mph    
Max Gust Speed 24 mph    
Visibility 10 miles    
Events      
T = Trace of Precipitation, MM = Missing Value Source: NWS Daily Summary

Daily Weather History Graph

Daily Weather History Graph

Search for Another Location

Airport or City:

Trip Planner

Search our weather history database for the weather conditions in past years. The results will help you decide how hot, cold, wet, or windy it might be!

Date:

Astronomy

Dec. 19, 2012 Rise Set
Actual Time 8:09 AM CST 4:52 PM CST
Civil Twilight 7:35 AM CST 5:26 PM CST
Nautical Twilight 6:57 AM CST 6:04 PM CST
Astronomical Twilight 6:21 AM CST 6:40 PM CST
Moon 12:00 PM CST (12/19) No Moon Set
Length of Visible Light 9h 51m
Length of Day
8h 42m
Waxing Crescent, 45% of the Moon is Illuminated
Dec 19
Waxing Crescent
Dec 19
First Quarter
Dec 28
Full
Jan 4
Last Quarter
Jan 11
New

Hourly Weather History & Observations

Time (CST) Temp. Windchill Dew Point Humidity Pressure Visibility Wind Dir Wind Speed Gust Speed Precip Events Conditions
12:53 AM 12.9 °F 3.8 °F 8.1 °F 81% 29.84 in 10.0 mi SSW 5.8 mph - N/A   Clear
1:53 AM 10.0 °F 0.4 °F 6.1 °F 84% 29.86 in 10.0 mi SW 5.8 mph - N/A   Clear
2:53 AM 9.0 °F 0.6 °F 5.0 °F 84% 29.88 in 10.0 mi South 4.6 mph - N/A   Clear
3:53 AM 8.1 °F -3.2 °F 3.9 °F 83% 29.88 in 10.0 mi SSW 6.9 mph - N/A   Clear
4:53 AM 8.1 °F -0.5 °F 3.9 °F 83% 29.89 in 10.0 mi SW 4.6 mph - N/A   Clear
5:53 AM 7.0 °F -1.7 °F 3.0 °F 84% 29.91 in 10.0 mi SSW 4.6 mph - N/A   Clear
6:53 AM 6.1 °F -5.6 °F 1.0 °F 80% 29.94 in 10.0 mi SSW 6.9 mph - N/A   Clear
7:53 AM 5.0 °F -5.6 °F 1.0 °F 84% 29.96 in 10.0 mi South 5.8 mph - N/A   Clear
8:53 AM 9.0 °F 2.4 °F 5.0 °F 84% 29.97 in 10.0 mi South 3.5 mph - N/A   Clear
9:53 AM 14.0 °F 8.2 °F 9.0 °F 80% 30.00 in 10.0 mi SSW 3.5 mph - N/A   Clear
10:53 AM 19.0 °F 7.5 °F 10.0 °F 68% 30.01 in 10.0 mi WNW 10.4 mph - N/A   Clear
11:53 AM 19.0 °F 4.0 °F 9.0 °F 65% 30.03 in 10.0 mi WNW 17.3 mph 24.2 mph N/A   Clear
12:53 PM 19.0 °F 8.2 °F 10.0 °F 68% 30.03 in 10.0 mi WNW 9.2 mph - N/A   Mostly Cloudy
1:53 PM 19.0 °F 7.5 °F 10.0 °F 68% 30.04 in 10.0 mi WNW 10.4 mph - N/A   Partly Cloudy
2:53 PM 19.0 °F 11.1 °F 10.0 °F 68% 30.05 in 10.0 mi West 5.8 mph - N/A   Clear
3:53 PM 19.0 °F 8.2 °F 10.0 °F 68% 30.08 in 10.0 mi WNW 9.2 mph - N/A   Clear
4:53 PM 15.1 °F 4.2 °F 8.1 °F 74% 30.09 in 10.0 mi West 8.1 mph - N/A   Clear
5:53 PM 12.0 °F 1.5 °F 7.0 °F 80% 30.13 in 10.0 mi West 6.9 mph - N/A   Clear
6:53 PM 15.1 °F 4.2 °F 8.1 °F 74% 30.15 in 10.0 mi WNW 8.1 mph - N/A   Clear
7:53 PM 14.0 °F 2.9 °F 8.1 °F 77% 30.17 in 10.0 mi WNW 8.1 mph - N/A   Clear
8:53 PM 10.9 °F -2.6 °F 5.0 °F 77% 30.15 in 10.0 mi NW 10.4 mph - N/A   Clear
9:53 PM 10.9 °F -1.8 °F 5.0 °F 77% 30.15 in 10.0 mi NNW 9.2 mph - N/A   Clear
10:53 PM 10.0 °F -4.5 °F 3.9 °F 76% 30.14 in 10.0 mi NW 11.5 mph - N/A   Scattered Clouds
11:01 PM 10.4 °F -3.3 °F 3.2 °F 73% 30.06 in 10.0 mi NNW 10.4 mph - N/A   Mostly Cloudy
11:53 PM 12.9 °F -0.9 °F 6.1 °F 74% 30.15 in 10.0 mi NNW 11.5 mph - N/A   Overcast